CUBERRT (43546 NORAD) Tracking and Keplerian Element Data

This shows tracking and keplerian element data for the satellite.

Feedback or suggestion? Click here.




ElementValue
Catalog43546
NameCUBERRT
Epoch Orbit5756
Epoch Day198.88309216
Epoch Year2019
RAAN191.5144
Inclination51.6363
Eccentricity0.0003452
Argument of Perigee251.4533
Mean Anonmoly108.6087
Mean Motion15.6556114
Decay Rate8.42E-05
L11 43546U 98067NU 19198.88309216 .00008420 00000-0 87530-4 0 9998
L22 43546 51.6363 191.5144 0003452 251.4533 108.6087 15.65561140 57567

Live tracking and technical data element details for CUBERRT (NORAD 43546). CUBERRT can be tracked NOW for your location showing map with azimuth and elevation plus other details from your city location.

Track the satellite on the map from your city or location and see movement details for azimuth, elevation, latitude, longitude, range, height, and movement on the map or in text.







IsCatalogInMostPopularTable: catalog: 43546, numindb: 184
Update: records affected: 1



GetName: 43546 CUBERRT

Hit Count: updated at: Fri, 19 Jul 2019 22:59:50 GMT